Regional Weather Roundup
Issued by NWS

Home | Current Version | Previous Version | Graphics & Text | Print | Product List | Glossary On
Versions: 1 2 3 4 5 6 7 8 9 10 11 12 13 14 15 16 17 18 19 20 21 22 23 24 25 26 27 28 29
000
ASUS45 KGTF 020910
RWRMT
MONTANA HOURLY WEATHER ROUNDUP
NATIONAL WEATHER SERVICE GREAT FALLS MT
300 AM MDT SAT MAY 02 2015

NOTE: "FAIR" INDICATES FEW OR NO CLOUDS BELOW 12000 FEET WITH NO
SIGNIFICANT WEATHER AND/OR OBSTRUCTIONS TO VISIBILITY.

MTZ001>007-043-021000-
WEST OF THE DIVIDE

CITY           SKY/WX    TMP DP  RH WIND       PRES   REMARKS
KALISPELL      PTSUNNY   47  33  58 SW6       29.75F
MISSOULA       PTCLDY    50  27  40 SE9       29.83F
BUTTE          MOCLDY    39  27  62 CALM      29.92F
DEER LODGE       N/A     46  27  46 CALM      29.90S
EUREKA           N/A     48  34  57 CALM      29.74S
HAMILTON         N/A     50  28  43 S13       29.85F
LIBBY            N/A     54  34  47 CALM      29.73S
$$

MTZ008-052>055-021000-
SOUTHWEST MONTANA

CITY           SKY/WX    TMP DP  RH WIND       PRES   REMARKS
BOZEMAN        MOCLDY    43  30  60 SE10      29.88S
DILLON         MOCLDY    48  21  34 S13       29.91F
$$

MTZ009-010-012-014-046-048-049-054-021000-
EAST SLOPES AND CENTRAL MONTANA

CITY           SKY/WX    TMP DP  RH WIND       PRES   REMARKS
CUT BANK       PTCLDY    40  29  64 N14       29.76S
GREAT FALLS    CLOUDY    55  22  27 SW15      29.75F
MALMSTROM AFB  CLOUDY    52  25  35 SW14      29.75F
HELENA         PTCLDY    48  22  35 NW5       29.82S
$$

MTZ011-013-016-021-045-047-050-051-021000-
NORTH CENTRAL MONTANA

CITY           SKY/WX    TMP DP  RH WIND       PRES   REMARKS
HAVRE          CLOUDY    48  32  53 CALM      29.72S
LEWISTOWN      CLOUDY    52  27  38 SW14      29.79F
CHINOOK          N/A     46  32  57 CALM      29.71F
FORT BENTON      N/A     55  25  30 SW6       29.72F
$$

MTZ017>020-022>042-056>058-061-062-021000-
EASTERN PLAINS

CITY           SKY/WX    TMP DP  RH WIND       PRES   REMARKS
BAKER          PTCLDY    49  35  58 NE3       29.77F
BILLINGS       MOCLDY    54  26  34 W6        29.80S
GLASGOW        MOCLDY    54  33  45 W3        29.69F
JORDAN           N/A     40  35  83 W5        29.72F
LIVINGSTON     CLEAR     38  27  64 SW6       29.86F
MILES CITY     PTCLDY    54  31  41 S9        29.72F
SIDNEY         MOCLDY    43  34  70 S3        29.72F
WOLF POINT     CLOUDY    44  35  70 CALM      29.69F
BIG TIMBER       N/A     45  27  49 SW8       29.85F
FORSYTH          N/A     46  36  66 CALM      29.72F
PLENTYWOOD       N/A     54  30  40 SE5       29.69S
POPLAR           N/A     52  34  50 NW3       29.70F
$$

REGIONAL REPORTS...DAKOTAS

CITY           SKY/WX    TMP DP  RH WIND       PRES   REMARKS
WILLISTON      MOCLDY    46  34  62 SW3       29.71F
MINOT          CLEAR     54  34  46 S8        29.72F
DICKINSON      MOCLDY    45  33  63 S12       29.75F
BEACH          FAIR      43  34  70 S9        29.76F
CROSBY         FAIR      48  36  61 S13       29.68F
WATFORD CITY   FAIR      45  32  61 CALM      29.70F
BISMARCK       PTCLDY    44  33  65 SE6       29.81S
GRAND FORKS    PTCLDY    54  36  50 SW9       29.78S
FARGO          PTCLDY    57  33  40 S12       29.83F
BUFFALO SD       N/A     50  35  56 SE10      29.75F
RAPID CITY     CLEAR     50  38  63 S7        29.85F
$$

REGIONAL REPORTS...WYOMING/IDAHO/WASHINGTON

CITY           SKY/WX    TMP DP  RH WIND       PRES   REMARKS
GILLETTE       CLEAR     53  41  63 SW18      29.85F
SHERIDAN       PTCLDY    54  25  32 CALM      29.81F
BUFFALO WY     PTCLDY    53  24  32 SW10      29.87F
CODY           MOCLDY    48  21  34 SW8       29.89S
YELLOWSTONE LA   N/A     27  21  78 CALM      30.06F
IDAHO FALLS    CLEAR     47  30  51 SW8       29.95S
SALMON         CLOUDY    46  28  49 CALM      29.90S
BOISE          CLEAR     54  24  31 SE7       29.85F
SPOKANE        CLOUDY    50  30  46 W12       29.82R
$$

REGIONAL REPORTS...ALBERTA

CITY           SKY/WX    TMP DP  RH WIND       PRES   REMARKS
EDMONTON       PTCLDY    43  32  65 W12       29.76R
CALGARY        MOCLDY    39  34  81 W5        29.81F
LETHBRIDGE     CLOUDY    43  37  81 NW7       29.80R
MEDICINE HAT   CLOUDY    48  39  71 NW5       29.78R
$$

REGIONAL REPORTS...SASKATCHEWAN

CITY           SKY/WX    TMP DP  RH WIND       PRES   REMARKS
SWIFT CURRENT  MOCLDY    45  36  70 N6        29.68F
REGINA         PTCLDY    41  34  75 SW7       29.63S
SASKATOON      MOCLDY    43  39  87 NW8       29.66R
$$



USA.gov is the U.S. government's official web portal to all federal, state and local government web resources and services.